Regional Weather Roundup
Issued by NWS

Home | Current Version | Previous Version | Text Only | Print | Product List | Glossary Off
Versions: 1 2 3 4 5 6 7 8 9 10 11 12 13 14 15 16 17 18 19 20 21 22 23 24 25 26 27 28 29 30 31 32 33 34 35 36 37 38 39 40 41 42 43 44 45 46 47 48 49 50

000
ASUS45 KBOI 210610
RWRID

IDAHO REGIONAL WEATHER ROUNDUP
NATIONAL WEATHER SERVICE BOISE ID
1200 AM MDT SAT OCT 21 2017

NOTE: "FAIR" INDICATES FEW OR NO CLOUDS BELOW 12000 FEET
WITH NO SIGNIFICANT WEATHER AND/OR OBSTRUCTIONS TO VISIBILITY

IDZ012-014-210700-
SOUTHWEST IDAHO


CITY           SKY/WX    TMP DP  RH WIND       PRES   REMARKS
BOISE          PTCLDY    42  32  67 NW5       30.02R
CALDWELL       PTCLDY    42  31  64 W3        30.03R
MOUNTAIN HOME  MOCLDY    41  33  72 W8        30.02R
$$

IDZ016-017-210700-
SOUTHCENTRAL IDAHO


CITY           SKY/WX    TMP DP  RH WIND       PRES   REMARKS
BURLEY         PTCLDY    38  30  73 SW13      29.99R WCI  30
JEROME         MOCLDY    38  32  79 SW8       30.01R WCI  32
TWIN FALLS     MOCLDY    37  31  78 SW15      30.02R WCI  28
$$

IDZ019>023-210700-
SOUTHEAST IDAHO


CITY           SKY/WX    TMP DP  RH WIND       PRES   REMARKS
IDAHO FALLS    CLEAR     32  27  81 SW16      29.92R WCI  21
POCATELLO      PTCLDY    38  27  64 SW20G28   29.97R WCI  28
REXBURG        CLEAR     33  29  85 S12       29.91R WCI  24
$$

IDZ006-010-011-018-031-032-210700-
CENTRAL IDAHO MOUNTAINS


CITY           SKY/WX    TMP DP  RH WIND       PRES   REMARKS
MCCALL         CLOUDY    32  30  92 CALM      29.93R
HAILEY         PTCLDY    30  27  86 NW5       29.97R WCI  25
STANLEY          N/A     29  28  96 CALM      29.94R
SALMON         CLOUDY    38  31  76 SW7       29.91R WCI  33
CHALLIS        PTCLDY    31  23  72 CALM      29.89R
$$

IDZ002-004-006-007-026-210700-
NORTHERN IDAHO


CITY           SKY/WX    TMP DP  RH WIND       PRES   REMARKS
LEWISTON       CLOUDY    49  36  61 SW5       29.94R
LOWELL           N/A     41  34  76 CALM      29.96R
COEUR D`ALENE  CLOUDY    43  36  76 SW5       29.86R
MULLAN PASS    SNOW      29  27  92 VRB6      29.79R VSB 1/4 WCI  23
$$



USA.gov is the U.S. government's official web portal to all federal, state and local government web resources and services.